EW1476 Weather Reports


time (UTC)temp
C
wind
direction
speed
KPH
gust
KPH
rain 1hr
cm
rain 24hr
cm
rain mn
cm
humidity
%
barometer
mb
20260510071524 9 323 0.0 0.0 0.00 0.00 0.00 91 1011.3
20260510070030 9 129 0.0 0.0 0.00 0.00 0.00 91 1011.2
20260510064522 9 129 0.0 0.0 0.00 0.00 0.00 90 1011.1
20260510063018 10 129 0.0 0.0 0.00 0.00 0.00 90 1011.1
20260510061516 10 129 0.0 0.0 0.00 0.00 0.00 90 1011.0
20260510060028 10 129 0.0 0.0 0.00 0.00 0.00 89 1010.9
20260510054528 11 129 0.0 0.0 0.00 0.00 0.00 89 1011.1
20260510053027 11 129 0.0 0.0 0.00 0.00 0.00 88 1011.2
20260510051524 11 129 0.0 0.0 0.00 0.00 0.00 87 1011.1
20260510050005 12 129 0.0 0.0 0.00 0.00 0.00 89 1011.2
20260510044504 12 129 0.0 0.0 0.00 0.00 0.00 87 1011.2
20260510043001 12 129 0.0 0.0 0.00 0.00 0.00 87 1011.3
20260510041503 12 129 0.0 0.0 0.00 0.00 0.00 87 1011.2
20260510040004 12 129 0.0 0.0 0.00 0.00 0.00 85 1011.3
20260510034504 12 129 0.0 0.0 0.00 0.00 0.00 85 1011.1
20260510033004 13 129 0.0 0.0 0.00 0.00 0.00 85 1011.1
20260510031503 13 129 0.0 0.0 0.00 0.00 0.00 86 1011.1
20260510030003 13 129 0.0 0.0 0.00 0.00 0.00 85 1011.1
20260510024503 13 129 0.0 0.0 0.00 0.00 0.00 83 1010.9
20260510023004 14 129 0.0 0.0 0.00 0.00 0.00 82 1010.7
20260510021507 15 129 0.0 0.0 0.00 0.00 0.00 81 1010.6
20260510020004 15 129 0.0 0.0 0.00 0.00 0.00 80 1010.5
20260510014503 15 129 0.0 0.0 0.00 0.00 0.00 78 1010.6
20260510013007 16 129 0.0 0.0 0.00 0.00 0.00 77 1010.2
20260510011507 16 129 0.0 0.0 0.00 0.00 0.00 76 1010.1
20260510010008 16 129 0.0 0.0 0.00 0.00 0.00 74 1009.8
20260510004507 17 129 0.0 0.0 0.00 0.00 0.00 72 1009.7
20260510003006 17 129 0.0 0.0 0.00 0.00 0.00 70 1009.6
20260510001505 17 129 0.0 0.0 0.00 0.00 0.00 67 1009.5
20260510000014 18 113 0.0 0.0 0.00 0.00 0.00 62 1009.3
20260509234507 18 113 0.0 0.0 0.00 0.00 0.00 62 1009.3
20260509233012 19 113 0.0 0.0 0.00 0.00 0.00 62 1009.2
20260509231512 19 113 0.0 0.0 0.00 0.00 0.00 61 1009.1
20260509230008 19 113 0.0 0.0 0.00 0.00 0.00 61 1009.1
20260509224512 19 113 0.0 0.0 0.00 0.00 0.00 60 1009.0
20260509223011 19 113 0.0 0.0 0.00 0.00 0.00 61 1009.1
20260509221510 20 113 0.0 0.0 0.00 0.00 0.00 62 1009.0
20260509220012 20 113 0.0 0.0 0.00 0.00 0.00 60 1008.9
20260509214520 20 113 0.0 0.0 0.00 0.00 0.00 59 1009.1
20260509213009 20 116 0.0 0.0 0.00 0.00 0.00 60 1009.0
20260509211518 20 116 0.0 0.0 0.00 0.00 0.00 61 1009.1
20260509210017 19 116 0.0 0.0 0.00 0.00 0.00 60 1009.1
20260509204523 19 116 0.0 0.0 0.00 0.00 0.00 60 1009.1
20260509203016 19 121 0.0 0.0 0.00 0.00 0.00 60 1009.1
20260509201514 19 150 0.0 0.0 0.00 0.00 0.00 58 1009.2
20260509200014 20 258 0.0 1.6 0.00 0.00 0.00 58 1009.2
20260509194518 20 232 1.6 4.8 0.00 0.00 0.00 57 1009.3
20260509193025 20 274 0.0 4.8 0.00 0.00 0.00 60 1009.5
20260509191524 19 143 0.0 0.0 0.00 0.00 0.00 61 1009.7
20260509190022 18 188 0.0 0.0 0.00 0.00 0.00 60 1009.6
20260509184524 18 254 0.0 0.0 0.00 0.00 0.00 58 1010.0
20260509183024 18 202 0.0 0.0 0.00 0.00 0.00 59 1010.2
20260509181509 18 103 0.0 0.0 0.00 0.00 0.00 60 1010.5
20260509180016 17 202 0.0 0.0 0.00 0.00 0.00 60 1011.1
20260509174505 17 214 0.0 0.0 0.00 0.00 0.00 58 1011.0
20260509173003 17 214 0.0 0.0 0.00 0.00 0.00 60 1011.3
20260509171504 17 213 0.0 0.0 0.00 0.00 0.00 60 1011.4
20260509170003 17 214 0.0 0.0 0.00 0.00 0.00 56 1011.3
20260509164517 17 122 0.0 0.0 0.00 0.00 0.00 56 1011.2
20260509163019 17 122 0.0 0.0 0.00 0.00 0.00 58 1011.3
20260509161506 17 122 0.0 0.0 0.00 0.00 0.00 55 1011.3
20260509160004 17 169 0.0 0.0 0.00 0.00 0.00 56 1011.4
20260509154507 17 109 0.0 0.0 0.00 0.00 0.00 56 1011.4
20260509153005 16 91 0.0 0.0 0.00 0.00 0.00 60 1011.5
20260509151516 15 282 0.0 0.0 0.00 0.00 0.00 58 1011.5
20260509150027 15 271 0.0 0.0 0.00 0.00 0.00 59 1011.8
20260509144522 15 226 0.0 0.0 0.00 0.00 0.00 61 1012.0
20260509143019 14 205 0.0 0.0 0.00 0.00 0.00 62 1011.9
20260509141508 14 205 0.0 0.0 0.00 0.00 0.00 64 1011.9
20260509140021 14 206 0.0 0.0 0.00 0.00 0.00 59 1011.7
20260509134538 15 206 0.0 0.0 0.00 0.00 0.00 60 1011.8
20260509133022 14 208 0.0 0.0 0.00 0.00 0.00 60 1011.8
20260509131515 14 210 0.0 0.0 0.00 0.00 0.00 61 1011.8
20260509130008 14 204 0.0 0.0 0.00 0.00 0.00 61 1011.8
20260509124507 13 206 0.0 0.0 0.00 0.00 0.00 61 1011.8
20260509123024 13 205 0.0 0.0 0.00 0.00 0.00 62 1011.9
20260509121537 13 203 0.0 0.0 0.00 0.00 0.00 65 1011.9
20260509120018 12 203 0.0 0.0 0.00 0.00 0.00 67 1012.0
20260509114529 12 203 0.0 0.0 0.00 0.00 0.00 64 1011.8
20260509113031 12 203 0.0 0.0 0.00 0.00 0.00 66 1011.6
20260509111526 12 203 0.0 0.0 0.00 0.00 0.00 64 1011.4
20260509110027 12 203 0.0 0.0 0.00 0.00 0.00 63 1011.3
20260509104535 12 203 0.0 0.0 0.00 0.00 0.00 61 1011.1
20260509103028 12 203 0.0 0.0 0.00 0.00 0.00 60 1011.0
20260509101519 12 203 0.0 0.0 0.00 0.00 0.00 59 1011.2
20260509100015 12 203 0.0 0.0 0.00 0.00 0.00 59 1011.1
20260509094536 12 203 0.0 0.0 0.00 0.00 0.00 59 1011.0
20260509093028 13 203 0.0 0.0 0.00 0.00 0.00 59 1011.2
20260509091507 13 188 0.0 0.0 0.00 0.00 0.00 58 1011.2
20260509090004 13 186 0.0 0.0 0.00 0.00 0.00 59 1011.3
20260509084524 13 166 0.0 0.0 0.00 0.00 0.00 57 1011.4
20260509083018 13 213 0.0 0.0 0.00 0.00 0.00 58 1011.5
20260509081523 12 196 0.0 0.0 0.00 0.00 0.00 58 1011.5
20260509080012 12 158 0.0 0.0 0.00 0.00 0.00 60 1011.6
20260509074509 12 158 0.0 0.0 0.00 0.00 0.00 61 1011.7
20260509073004 12 158 0.0 0.0 0.00 0.00 0.00 60 1011.7